EHI
0 0 0 0 0 0 0 0 0 0 0 0 0 0 0 0 0 0 0 0 0 0 0 0 0 0 0 0 1 2 3 4 5 5 3 1 0 0 0 0 0 0 0 0 0 0 0 0 0
0 0 0 0 0 0 0 0 0 0 0 0 0 0 0 0 0 0 0 0 0 0 0 0 0 0 0 1 2 3 3 3 3 3 2 1 0 0 0 0 0 0 0 0 0 0 0 0 0
0 0 0 0 0 0 0 0 0 0 0 0 0 0 0 0 0 0 0 0 0 0 0 0 0 0 0 1 2 2 2 1 1 1 1 1 0 0 0 0 0 0 0 0 0 0 0 0 0
0 0 0 0 0 0 0 0 0 0 0 0 0 0 0 0 0 0 0 0 0 0 0 0 0 0 0 0 1 1 1 0 0 0 0 0 0 0 0 0 0 0 0 0 0 0 0 0 0
0 0 0 0 0 0 0 0 0 0 0 0 0 0 0 0 0 0 0 0 0 0 0 0 0 0 0 0 0 0 0 0 0 0 0 0 0 0 0 0 0 0 0 0 0 0 0 0 0
0 0 0 0 0 0 0 0 0 0 0 0 0 0 0 0 0 0 0 0 0 0 0 0 0 0 0 0 0 0 0 0 0 0 0 0 0 0 0 0 0 0 0 0 0 0 0 0 0
0 0 0 0 0 0 0 0 0 0 0 0 0 0 0 1 1 0 0 0 0 0 0 0 0 0 0 0 0 0 0 0 0 0 0 0 0 0 0 0 0 0 0 0 0 0 0 0 0
0 0 0 0 0 0 0 0 0 0 0 0 0 0 3 8 11 9 5 2 0 0 0 0 0 0 0 0 0 0 0 0 0 0 0 0 0 0 0 0 0 0 0 0 0 0 0 0 0
0 0 0 0 0 0 0 0 0 0 0 0 0 0 10 28 41 38 27 16 8 4 0 0 0 0 0 0 0 0 0 0 0 0 0 0 0 0 1 1 1 1 0 0 0 0 0 0 0
0 0 0 0 0 0 0 0 0 0 0 0 0 0 18 53 75 74 58 36 20 9 2 0 0 0 0 0 0 0 0 0 0 0 0 0 0 0 0 1 1 1 0 0 0 0 0 0 0
0 0 0 0 0 0 0 0 0 0 0 0 0 4 28 66 89 90 73 45 22 8 2 0 0 0 0 0 0 0 0 0 0 0 0 0 0 0 0 0 0 0 0 0 0 0 0 0 0
0 0 0 0 0 0 0 0 0 0 0 0 0 10 40 70 82 79 63 37 15 4 1 0 0 0 0 0 0 0 0 0 0 0 0 0 0 0 0 0 0 0 0 0 0 0 0 0 0
0 0 0 0 0 0 0 0 0 0 0 0 1 12 38 60 63 57 44 24 10 3 0 0 0 0 0 0 0 0 0 0 0 0 0 1 1 1 1 0 0 0 0 0 0 0 0 0 0
0 0 0 0 0 0 0 0 0 0 0 0 1 7 21 34 37 34 26 15 8 4 1 1 1 2 3 2 0 0 0 0 0 2 5 6 4 3 2 1 0 0 0 0 0 0 0 0 0
0 0 0 0 0 0 0 0 0 1 0 0 1 4 10 16 19 18 14 10 8 6 5 5 4 6 10 11 7 4 2 2 3 6 13 15 10 6 4 2 0 0 0 0 0 0 0 0 0
0 0 0 0 0 0 0 0 1 2 1 2 6 11 15 16 14 10 7 6 7 8 11 13 13 14 21 27 23 15 9 9 10 13 19 22 17 11 9 6 2 0 0 0 0 0 0 0 0
0 0 0 0 0 0 0 0 0 1 1 4 13 24 30 27 18 9 5 3 4 10 18 28 34 38 43 50 48 35 24 20 19 22 29 35 30 23 20 14 6 3 3 3 3 4 4 3 2
0 0 0 0 0 0 0 0 0 0 1 6 19 34 45 43 27 12 5 2 2 10 24 42 60 69 73 76 74 60 41 30 27 34 49 56 48 38 33 26 15 11 11 8 7 9 9 6 3
0 0 0 0 0 0 0 0 0 1 2 8 20 35 48 52 37 19 11 7 4 9 23 44 64 81 89 93 90 80 62 48 44 52 63 65 56 46 40 32 24 21 19 14 10 10 7 4 2
0 0 0 0 0 0 0 0 0 1 3 8 15 23 34 43 40 29 24 21 17 20 29 42 57 72 86 93 95 91 82 72 67 68 67 61 52 45 38 33 27 24 20 14 9 7 4 1 0
0 0 0 0 0 0 0 0 0 0 1 3 5 8 15 24 30 31 31 34 39 45 51 54 59 69 79 89 94 96 93 85 78 73 64 52 42 35 31 26 22 18 14 9 5 3 1 0 0
0 0 0 0 0 0 0 0 0 0 0 0 0 2 5 9 13 17 23 31 42 53 60 63 67 74 81 88 93 95 92 85 75 66 54 40 27 21 16 13 10 8 5 3 1 0 0 0 0
0 0 0 0 0 0 0 0 0 0 0 0 0 0 1 2 2 5 9 15 23 32 41 51 62 73 82 87 90 90 86 78 68 57 45 29 17 8 4 3 2 1 1 0 0 0 0 0 0
0 0 0 0 0 0 0 0 0 0 0 0 0 0 0 0 0 1 2 4 6 11 19 29 42 57 70 78 81 79 74 69 60 49 35 23 13 5 1 0 0 0 0 0 0 0 0 0 0
0 0 0 0 0 0 0 0 0 0 0 0 0 0 0 0 0 0 0 0 1 3 6 12 20 33 46 54 60 60 58 56 50 38 27 19 12 6 2 0 0 0 0 0 0 0 0 0 0
0 0 0 0 0 0 0 0 0 0 0 0 0 0 0 0 0 0 0 0 0 0 1 3 7 13 20 26 32 36 39 42 38 28 19 14 10 5 2 0 0 0 0 0 0 0 0 0 0
0 0 0 0 0 0 0 0 0 0 0 0 0 0 0 0 0 0 0 0 0 0 0 0 1 2 4 7 11 15 20 24 24 18 12 8 5 3 1 0 0 0 0 0 0 0 0 0 0
0 0 0 0 0 0 0 0 0 0 0 0 0 0 0 0 0 0 0 0 0 0 0 0 0 0 0 2 3 5 7 9 10 7 4 2 1 1 0 0 0 0 0 0 0 0 0 0 0
0 0 0 0 0 0 0 0 0 0 0 0 0 0 0 0 0 0 0 0 0 0 0 0 0 0 1 1 1 1 1 2 2 1 0 0 0 0 0 0 0 0 0 0 0 0 0 0 0
0 0 0 0 0 0 0 0 0 0 0 0 0 0 0 0 0 0 0 0 0 0 0 0 0 0 1 2 1 0 0 0 0 0 0 0 0 0 0 0 0 0 0 0 0 0 0 0 0
Wind_Speed
8 7 6 6 8 5 7 7 4 3 3 3 5 2 2 1 3 5 7 17 17 18 19 20 17 16 14 14 14 14 14 14 13 12 11 11 10 10 9 9 8 7 7 6 6 6 7 7 6
4 5 7 8 7 2 7 4 4 5 5 3 4 2 2 1 4 6 11 16 18 18 18 18 18 16 15 14 14 13 13 13 12 12 11 11 10 9 9 9 8 7 6 5 5 5 5 6 6
5 7 7 6 3 5 6 4 4 6 4 1 1 1 3 4 4 6 11 18 17 17 16 17 19 17 16 15 14 13 12 12 11 10 10 10 9 9 8 8 7 6 6 5 4 4 4 4 5
5 7 7 5 4 7 4 3 3 4 2 1 2 1 3 5 2 8 15 17 17 16 16 18 19 17 16 15 14 13 12 11 10 10 9 9 8 8 7 7 6 5 5 4 4 4 4 4 3
6 7 6 2 5 6 3 1 2 1 1 1 1 1 4 5 5 13 16 16 16 16 15 18 18 17 15 14 13 12 12 11 10 10 9 8 8 7 7 6 6 5 5 4 4 4 4 4 5
6 6 6 2 6 5 5 2 2 1 1 0 1 1 5 6 10 14 16 15 15 15 14 17 17 16 15 14 13 13 12 11 10 10 9 9 8 7 7 7 6 6 6 5 5 5 5 5 6
7 7 5 1 4 5 5 2 3 3 4 2 0 1 6 9 11 14 14 14 14 14 13 14 16 15 15 14 13 13 12 11 10 10 9 9 9 8 8 8 7 7 7 7 7 7 7 7 7
6 7 6 4 3 4 5 2 2 4 1 2 3 2 4 13 13 14 13 13 12 12 12 12 13 14 14 14 14 13 12 11 10 9 9 9 9 10 9 10 10 9 8 8 8 9 9 9 9
6 9 7 3 2 3 4 3 1 1 3 4 4 2 4 16 16 15 13 13 12 12 11 11 12 12 12 12 14 14 12 11 10 11 11 10 11 12 11 11 7 8 9 10 10 10 11 11 13
7 10 3 2 2 3 4 4 4 4 6 6 6 5 6 17 17 16 15 16 15 14 13 11 11 11 11 9 10 10 11 11 11 9 10 10 8 6 7 6 6 9 10 11 13 12 12 13 10
6 7 3 3 3 6 6 6 4 6 6 5 5 8 12 18 18 17 16 15 14 14 13 12 10 10 10 8 7 7 6 7 10 11 9 8 6 6 7 5 8 10 11 10 9 11 9 7 6
5 4 6 7 6 8 8 7 7 7 6 4 3 5 15 19 19 18 16 15 14 14 14 13 12 10 9 9 7 7 6 6 7 8 10 8 6 6 6 5 6 5 5 5 6 5 7 8 8
6 5 5 8 10 9 10 10 7 9 6 4 4 8 15 18 17 16 15 14 14 14 14 13 12 11 9 9 7 8 8 7 8 6 8 8 7 7 6 5 5 7 6 6 7 7 6 7 8
3 7 8 9 9 7 9 9 8 6 4 4 5 9 13 15 16 15 14 13 13 14 14 12 12 12 11 9 9 8 8 7 8 7 9 10 8 7 6 7 7 7 7 7 6 8 7 7 6
5 8 9 7 5 4 7 12 9 5 5 6 6 7 8 10 11 12 12 11 12 12 12 12 12 12 12 12 12 9 9 9 9 8 9 10 10 9 8 8 8 8 7 7 8 9 7 8 8
6 8 6 4 2 3 8 12 2 7 6 7 5 4 4 6 8 8 9 9 10 10 10 11 10 12 13 12 10 9 9 9 8 8 9 11 12 11 9 9 9 8 7 7 7 8 8 8 8
8 5 3 3 2 2 7 7 4 8 5 5 3 2 2 3 5 6 7 9 10 10 10 11 11 12 12 12 11 11 9 9 9 8 9 10 12 12 10 9 8 8 7 7 8 7 7 8 9
1 2 3 3 2 4 6 4 5 7 5 3 2 1 0 1 2 4 6 8 9 10 11 12 12 12 12 11 10 10 10 10 10 9 9 10 10 12 10 8 9 9 7 7 7 7 7 8 9
2 4 3 1 3 6 5 5 5 6 5 4 3 3 2 1 1 0 2 5 7 9 11 13 13 13 11 10 10 10 10 10 9 8 9 8 9 9 8 8 7 7 7 8 9 8 9 9 8
4 4 3 2 2 7 8 9 3 2 4 5 5 4 4 3 2 1 1 2 5 6 8 10 12 13 13 11 10 9 9 8 7 4 4 5 6 6 6 8 6 6 5 7 8 7 7 7 6
2 4 5 8 9 10 10 13 8 5 2 2 3 4 5 5 5 5 5 4 5 5 5 6 9 10 12 12 9 7 6 5 5 5 4 5 5 5 4 5 5 5 7 7 7 6 7 7 6
4 3 8 11 13 12 9 13 10 7 6 4 4 5 6 6 6 7 7 7 6 6 6 6 7 8 10 10 11 12 10 9 9 7 6 6 6 5 5 5 5 6 7 6 7 6 6 7 6
7 6 10 13 14 15 14 13 10 7 8 5 5 5 5 6 6 6 6 6 6 7 6 6 7 7 7 9 11 11 11 9 7 6 8 7 6 6 6 6 6 7 7 6 5 4 6 5 6
5 8 11 11 11 13 8 10 9 4 3 4 4 4 4 5 5 5 5 5 6 6 6 7 7 7 7 8 9 10 11 10 9 8 8 7 6 7 9 8 8 8 6 6 6 5 6 5 5
5 9 8 7 7 4 3 8 6 5 3 1 1 3 4 5 6 6 7 7 7 7 7 7 8 9 9 9 9 10 10 10 10 9 9 8 7 7 8 8 7 7 6 6 6 6 5 5 5
6 8 8 9 9 11 11 9 2 4 3 3 3 5 6 7 7 8 8 8 8 9 8 8 8 9 9 9 9 8 8 7 6 7 7 7 6 6 7 7 7 7 7 6 6 6 4 4 3
6 6 8 10 14 13 8 4 4 5 6 6 6 7 8 8 9 9 10 10 10 10 9 9 9 9 10 10 9 8 7 6 5 5 5 4 5 5 6 6 6 6 5 5 5 4 3 3 2
5 7 5 7 8 11 10 10 5 5 5 5 6 8 8 9 9 10 9 10 9 10 9 9 8 9 9 9 8 6 6 4 4 4 4 4 4 4 5 5 5 5 5 5 5 4 2 2 1
5 6 6 8 8 11 13 8 4 3 7 8 9 10 9 10 10 9 8 8 9 9 8 6 6 6 6 7 6 4 2 3 3 2 2 2 3 4 4 4 4 5 5 4 4 3 3 2 3
8 9 8 10 11 13 14 13 5 5 7 9 12 12 11 9 9 8 8 8 7 7 6 4 4 3 4 5 4 2 2 4 4 3 2 1 2 3 4 4 5 5 4 4 4 4 4 5 6
Wind_Direction
199 213 226 229 240 229 63 60 47 82 110 107 153 191 292 304 328 42 111 153 149 148 148 158 163 162 157 150 144 142 142 144 146 149 151 153 156 157 156 155 153 148 138 129 124 121 120 120 123
240 216 225 239 269 88 81 48 52 45 69 116 149 211 266 78 44 93 141 151 151 150 152 161 160 163 160 155 152 149 149 149 151 153 156 159 162 162 161 159 156 153 147 140 136 134 133 135 141
233 233 259 262 330 35 70 67 71 92 91 103 157 278 335 33 102 140 144 153 154 152 156 154 162 166 164 161 158 157 155 154 153 155 159 164 167 168 166 162 160 161 158 156 152 148 148 156 166
238 232 242 266 62 54 36 64 118 134 101 31 287 144 78 47 120 144 145 158 156 158 161 153 168 169 167 166 165 164 162 160 160 162 165 168 170 173 171 172 173 174 175 180 183 182 181 183 187
247 264 256 190 71 59 55 70 162 188 30 40 284 359 83 85 122 141 152 160 163 163 161 156 172 172 172 171 171 171 170 169 170 172 174 175 176 179 182 186 189 191 195 203 209 213 209 209 214
251 255 258 136 91 76 62 83 219 282 351 139 237 138 96 115 143 152 156 165 167 164 164 153 171 178 177 178 178 178 179 180 181 182 183 185 186 189 194 200 206 209 210 211 216 223 226 228 234
277 273 267 227 125 104 46 354 257 290 288 335 342 187 119 150 154 157 157 171 169 167 165 160 171 179 183 185 185 185 186 189 192 194 195 196 198 203 209 214 220 223 225 225 226 227 232 236 240
287 272 235 205 182 106 44 1 321 274 290 95 187 244 143 163 162 164 166 174 172 172 170 172 175 178 184 186 189 192 193 196 202 207 209 208 211 215 219 225 214 228 238 241 240 240 241 242 244
258 254 234 188 186 97 35 346 43 333 146 186 216 280 71 153 164 170 173 177 177 179 178 184 179 182 189 191 178 191 197 203 209 210 213 220 225 215 204 219 188 227 245 250 251 250 250 250 239
242 249 248 40 330 339 344 325 329 224 214 218 212 171 145 157 170 178 183 185 182 184 185 190 187 187 193 198 176 201 203 198 215 221 210 218 231 248 249 141 203 242 251 255 250 251 251 245 249
244 269 316 257 291 311 308 313 299 270 253 241 236 187 169 172 178 186 191 193 187 189 188 190 192 196 200 201 196 206 211 204 213 222 223 234 241 230 235 227 206 221 233 244 232 232 244 250 256
252 256 278 286 302 296 302 302 294 273 283 350 299 190 177 183 187 190 192 195 189 194 194 190 191 197 210 217 206 213 217 212 222 209 222 226 229 246 248 248 257 247 235 244 261 258 261 270 274
241 261 265 273 276 284 287 275 283 277 292 306 262 189 189 192 192 193 192 194 193 195 198 194 192 199 206 221 228 223 226 224 221 232 220 238 240 237 241 246 253 261 259 248 243 255 270 274 269
297 285 268 264 268 265 266 264 250 264 312 288 240 210 203 200 195 192 192 192 195 198 199 197 197 201 206 213 223 228 232 224 242 229 228 226 240 243 246 244 246 254 258 265 273 269 268 267 273
276 272 255 233 243 236 262 249 240 318 310 276 253 231 216 205 199 198 195 197 200 202 201 200 201 205 207 216 224 229 233 229 229 229 229 229 236 236 241 250 248 249 253 253 255 264 268 265 264
240 244 235 147 225 198 248 250 154 346 295 274 270 255 226 200 207 204 199 203 209 211 207 208 209 206 209 216 227 235 237 237 234 234 230 225 236 240 244 251 253 254 255 256 258 262 266 267 270
215 232 244 184 143 278 253 267 13 344 312 280 284 280 247 193 204 209 214 211 211 215 217 216 218 216 212 213 218 232 237 242 244 240 239 232 235 241 244 252 259 263 262 262 265 262 267 275 277
191 259 236 256 35 296 269 291 350 359 353 345 332 338 257 235 193 204 221 228 221 218 218 220 216 218 215 215 217 227 230 231 234 241 245 252 252 251 251 252 256 260 263 264 262 269 266 273 277
301 277 281 342 352 296 286 295 333 355 357 10 11 7 21 16 73 180 247 242 235 226 222 221 222 214 213 216 218 219 223 226 230 236 250 264 272 274 269 265 264 260 258 264 271 273 272 269 277
230 257 279 236 305 299 293 281 274 356 16 19 22 22 14 10 16 8 323 291 268 252 241 236 230 225 219 223 223 228 233 230 228 230 246 269 278 280 275 273 266 262 267 265 267 266 279 283 276
227 301 322 312 303 265 272 267 215 175 163 97 67 51 43 32 17 11 4 356 333 312 289 272 261 248 235 234 229 225 223 223 217 212 213 220 229 244 236 250 259 266 262 255 254 258 255 266 270
280 324 305 297 292 290 285 286 265 196 187 150 93 72 59 45 32 23 14 7 354 343 329 311 292 272 256 243 237 228 223 223 222 210 207 209 204 217 221 219 230 245 249 246 245 245 256 258 268
323 324 291 287 283 280 268 267 277 182 214 163 104 72 54 41 27 17 8 358 350 343 335 326 314 298 282 263 250 243 239 238 230 213 202 195 189 198 209 215 217 226 235 237 247 247 257 261 272
305 278 266 253 261 263 278 283 278 235 226 140 109 65 40 24 10 1 350 343 338 334 331 329 320 306 293 275 262 250 245 242 230 212 198 193 190 194 200 205 216 222 225 221 230 244 245 265 279
289 309 295 269 247 275 46 286 278 62 107 120 24 0 353 344 334 329 326 327 325 324 326 321 315 306 299 286 273 262 254 245 231 216 200 192 193 195 197 196 210 218 218 221 232 236 259 262 271
332 314 315 310 306 312 296 266 295 118 180 219 260 285 298 299 300 303 305 308 308 310 313 311 308 303 298 289 281 272 257 244 231 214 200 191 196 192 186 195 210 218 217 221 227 241 237 250 259
308 315 332 292 282 281 272 260 260 184 215 229 251 269 282 293 296 293 295 297 298 301 303 304 304 301 299 293 281 265 251 237 214 190 189 184 180 176 185 194 203 208 212 222 231 229 235 240 236
308 320 282 284 296 290 283 279 267 192 231 266 285 298 303 301 297 296 294 292 295 295 296 298 300 304 308 301 287 269 244 213 177 165 162 165 168 168 178 184 186 191 201 209 224 204 186 212 116
269 263 285 292 289 290 293 301 25 261 290 296 304 305 301 302 305 305 301 298 293 289 290 295 306 316 325 326 317 284 225 160 140 132 130 143 164 172 172 176 177 182 189 192 199 180 157 128 88
278 277 273 280 283 272 277 287 315 286 284 287 298 302 302 299 300 302 302 300 294 291 290 291 303 329 352 360 8 20 82 102 89 68 62 122 159 162 160 168 166 165 164 168 157 128 103 87 76